POSAT-2 (63488 NORAD) Tracking and Keplerian Element Data

This shows tracking and keplerian element data for the satellite.

Feedback or suggestion? Click here.




ElementValue
Catalog63488
NamePOSAT-2
Epoch Orbit3963
Epoch Day354.26295964
Epoch Year2025
RAAN68.1135
Inclination97.5062
Eccentricity0.000765
Argument of Perigee47.3853
Mean Anonmoly312.8019
Mean Motion15.07564141
Decay Rate5.901E-05
L11 63488U 25009DR 25354.26295964 .00005901 00000+0 39186-3 0 9991
L22 63488 97.5062 68.1135 0007650 47.3853 312.8019 15.07564141 39631



Live tracking and technical data element details for POSAT-2 (NORAD 63488). POSAT-2 can be tracked NOW for your location showing map with azimuth and elevation plus other details from your city location.







IsCatalogInMostPopularTable: catalog: 63488, numindb: 3
Update: records affected: 1



GetName: 63488 POSAT-2

Hit Count: updated at: Mon, 20 Apr 2026 10:31:51 GMT